SCP
-0 -0 -0 -0 0 0 0 0 0 0 0 0 0 0 0 0 0 0 0 0 0 0 0 0 0 0 0 0 0 0 0 0 0 0 0 0 0 0 1 0 0 0 0
-0 -0 -0 -0 -0 0 0 0 0 0 0 0 0 0 0 0 0 0 0 0 0 0 0 0 0 0 0 0 0 0 0 0 0 0 0 0 0 0 0 0 0 0 0
-0 -0 -0 -0 -0 0 0 0 0 0 0 0 0 0 0 0 0 0 0 0 0 0 0 0 0 0 0 0 0 0 0 0 0 0 0 0 0 0 0 0 0 0 0
-0 -0 -0 -0 -0 0 0 0 0 0 0 0 0 0 0 0 0 0 0 0 0 0 0 0 0 0 0 0 0 0 0 0 0 0 0 0 0 0 0 0 0 0 0
-0 -0 -0 -0 -0 0 0 0 0 0 0 0 0 0 0 0 0 0 0 0 0 0 0 0 0 0 0 0 0 0 0 0 0 0 0 0 0 0 0 0 0 0 0
0 -0 -0 -1 -0 0 0 0 0 0 0 0 0 0 0 0 0 0 0 0 0 0 0 0 0 0 0 0 0 0 0 0 0 0 0 0 0 0 0 0 1 0 0
-0 -0 -0 -0 0 -0 0 1 0 0 0 0 0 0 0 0 0 0 0 0 0 0 0 0 0 0 0 0 0 0 0 0 0 0 0 0 0 0 0 0 1 1 0
-0 0 0 0 0 0 1 1 1 0 0 0 0 0 0 0 0 0 0 0 0 0 0 0 0 0 0 0 0 0 0 0 0 0 0 0 0 0 0 0 1 1 1
-0 -0 0 0 0 1 1 1 1 1 1 0 0 0 0 0 0 0 0 0 0 0 0 0 0 0 0 0 0 0 0 0 0 0 0 0 0 0 0 0 1 2 1
-0 -0 0 0 0 0 0 1 1 1 1 1 1 1 1 1 1 0 0 0 0 0 0 0 0 0 0 0 0 0 0 0 0 0 0 0 0 0 0 0 0 1 1
0 0 0 0 0 0 0 0 1 1 1 1 1 1 1 0 0 0 0 0 1 0 0 0 0 0 0 0 0 0 0 0 0 0 0 0 0 0 0 0 0 1 1
0 0 0 0 0 0 0 0 1 0 1 1 0 0 0 0 0 0 0 1 1 1 1 1 0 0 0 0 1 0 0 0 0 0 0 0 0 0 0 0 0 1 1
0 0 0 0 0 0 0 0 1 1 1 1 1 1 1 0 0 0 0 1 1 1 0 0 1 1 0 1 1 1 0 0 0 0 0 0 0 0 0 0 0 0 1
0 0 0 0 0 0 0 0 0 1 1 1 1 2 2 1 1 1 0 0 0 0 0 0 0 1 1 1 1 1 1 0 0 0 0 0 0 0 0 0 0 0 0
0 0 0 0 1 1 1 0 1 2 1 1 1 2 1 1 2 1 1 0 0 0 0 0 0 1 1 1 1 1 1 0 0 0 0 0 0 0 0 0 0 0 0
0 0 0 0 1 1 1 1 2 2 1 1 1 1 1 1 2 1 0 0 0 0 0 0 0 1 1 2 1 1 1 0 0 0 0 0 0 0 0 0 0 0 0
0 0 0 0 0 0 1 1 2 1 1 1 1 1 1 1 2 1 0 0 0 0 0 0 1 1 1 2 2 1 1 1 0 0 0 0 0 0 0 0 0 0 0
0 0 0 0 0 0 0 1 1 1 1 0 1 1 1 1 1 1 0 0 0 0 1 1 1 1 0 2 2 1 1 1 1 1 0 0 0 0 0 0 0 0 0
0 0 0 0 0 0 0 1 1 1 1 1 1 1 1 1 1 0 1 0 1 0 0 0 1 0 1 2 1 1 1 1 1 1 0 0 0 0 0 0 0 0 0
0 0 0 0 0 0 0 1 1 1 1 1 1 1 1 1 1 1 1 1 1 1 1 1 0 0 2 1 1 1 1 1 1 1 0 0 0 0 0 0 0 0 0
0 0 0 0 1 1 1 1 1 1 1 1 1 1 1 1 1 1 1 1 1 1 1 0 1 1 1 1 1 1 0 1 0 0 -0 0 0 0 0 0 0 1 0
0 0 0 0 1 1 0 1 1 1 1 1 1 2 1 1 1 1 1 1 1 1 1 1 1 1 1 1 1 1 0 0 0 0 0 0 0 0 0 0 0 0 0
0 0 0 0 0 0 0 1 1 2 1 1 2 2 1 1 1 1 1 1 2 1 1 1 1 1 1 1 0 0 0 0 0 0 0 0 0 0 0 0 0 0 0
0 0 0 0 0 0 1 1 1 1 1 1 1 2 2 1 1 1 1 1 1 1 1 1 1 0 1 0 0 0 0 0 0 0 0 0 0 0 0 0 0 0 0
0 0 0 0 0 0 0 0 1 1 2 2 2 2 2 1 1 1 1 1 2 1 1 1 1 0 0 0 0 0 0 0 0 0 0 0 0 0 0 0 0 0 0
0 0 0 0 1 0 1 1 1 1 2 2 2 2 2 2 1 1 1 1 1 1 1 0 0 0 0 0 0 0 0 0 0 0 0 0 0 0 0 0 0 0 0
Wind_Speed_500mb
44 39 35 33 34 34 33 31 29 28 27 25 24 23 20 17 14 14 13 11 9 8 9 10 9 9 10 12 14 17 19 19 21 22 19 12 10 11 10 13 15 11 17
43 44 39 36 35 37 35 33 33 32 30 27 25 25 23 21 18 15 14 13 10 7 5 4 5 7 8 9 11 13 16 18 20 23 24 18 17 16 16 15 17 16 18
42 44 44 39 35 36 36 36 35 32 30 28 26 25 25 23 21 19 17 15 13 10 7 3 2 4 5 7 9 11 13 16 18 18 19 10 12 20 20 20 22 23 24
40 41 44 40 37 35 37 36 36 33 31 30 29 28 26 25 22 21 18 15 13 12 10 7 4 3 3 4 6 7 10 13 15 12 5 10 12 23 22 25 25 27 29
41 40 41 40 38 35 34 32 33 34 33 32 32 32 30 28 26 24 20 17 14 12 10 8 5 3 3 5 5 6 6 9 9 6 9 9 9 21 26 25 20 24 21
41 40 36 40 36 34 34 33 33 34 32 33 34 34 33 30 29 26 22 18 14 10 7 7 6 6 7 6 6 8 8 7 5 7 11 14 11 25 26 26 26 23 18
40 37 34 40 37 36 34 35 34 34 33 35 36 36 35 32 29 27 24 19 15 12 10 7 7 8 6 7 7 9 11 12 5 14 13 12 14 20 22 27 24 22 19
37 38 36 40 39 40 38 38 36 37 36 37 39 40 38 36 34 32 28 22 17 13 10 8 7 7 7 7 9 11 13 15 13 15 17 15 24 21 20 26 27 24 22
40 39 39 38 44 45 45 42 39 41 41 42 44 45 43 42 40 36 32 28 23 17 14 12 9 9 9 9 10 13 15 17 15 17 19 19 32 23 21 20 28 26 22
40 41 42 42 44 47 48 46 45 47 48 49 50 49 48 47 45 42 38 34 28 24 20 16 14 12 12 13 13 14 15 16 16 19 21 23 40 27 22 21 24 28 23
35 44 44 41 45 48 52 52 51 54 56 57 58 56 52 54 55 52 48 41 37 33 27 23 21 18 18 16 17 16 16 9 18 18 19 35 34 31 28 25 24 28 27
35 35 42 41 42 48 50 52 56 60 64 68 68 67 63 64 57 55 54 50 45 41 34 30 28 25 24 15 20 22 11 16 16 18 17 37 28 30 30 28 28 28 29
28 32 35 44 41 41 46 51 56 58 64 68 70 72 68 62 53 53 47 58 56 50 42 39 37 32 23 21 21 20 18 18 16 16 19 27 20 22 27 30 30 30 32
25 28 31 41 37 33 39 47 52 57 60 61 59 68 68 65 58 52 49 44 49 43 45 36 31 30 28 28 26 24 21 19 18 18 20 27 21 18 22 29 30 33 31
31 25 26 25 27 33 37 40 46 53 58 56 55 58 63 59 62 53 51 48 46 41 41 38 36 34 30 30 30 30 25 24 23 21 19 32 24 20 18 23 31 34 33
35 32 17 23 32 41 47 52 54 57 59 58 48 51 63 59 58 51 51 52 49 45 43 39 37 34 32 35 33 32 30 26 25 26 23 27 28 27 23 19 27 36 35
33 38 36 31 42 42 47 55 59 62 65 54 49 53 58 59 54 54 47 49 47 47 46 41 39 35 33 35 37 33 31 27 27 28 27 26 26 27 28 22 22 33 38
25 31 35 38 46 50 49 47 52 58 57 55 46 45 53 54 48 48 43 44 45 47 44 42 38 36 36 41 37 33 31 28 31 32 30 26 30 27 27 26 24 29 35
37 40 46 53 56 52 44 42 50 51 54 47 43 41 47 44 40 39 37 38 44 42 42 40 38 36 38 35 33 30 28 30 32 32 33 34 35 33 28 30 28 26 33
46 60 66 68 59 53 47 42 45 47 48 42 40 40 41 36 31 34 34 35 39 36 36 38 37 35 38 26 23 27 34 36 39 37 37 41 33 33 34 28 20 24 27
55 60 57 53 54 48 45 38 36 40 39 34 36 40 33 30 31 34 30 32 29 28 33 35 33 31 24 25 20 27 33 42 51 50 48 37 32 27 28 27 24 26 17
53 54 49 45 43 43 43 37 32 29 29 29 30 31 29 30 32 29 32 28 24 25 32 34 31 25 23 26 24 28 18 24 31 38 35 28 32 31 28 28 24 27 21
48 51 50 49 48 47 44 39 35 33 31 29 30 27 30 29 28 31 32 31 30 25 28 30 30 29 24 27 33 24 12 13 8 22 28 30 31 34 32 24 26 26 30
60 53 52 62 59 55 46 39 37 30 28 25 26 25 26 28 30 33 33 33 27 24 26 25 27 26 27 25 22 30 26 16 9 9 15 22 25 24 26 26 24 26 25
58 49 47 60 56 48 44 37 39 33 27 25 29 29 29 32 32 32 31 32 31 25 24 27 26 28 26 24 22 19 23 20 18 9 12 15 20 18 22 25 25 26 24
44 42 40 43 44 42 40 39 35 33 31 33 32 33 30 29 30 29 29 28 26 24 24 24 24 24 24 21 18 25 20 20 18 12 9 17 21 23 20 22 24 25 25
Wind_Direction_500mb
186 193 189 184 174 166 162 158 156 156 160 166 164 162 163 166 174 184 191 201 210 224 232 228 225 236 246 251 251 254 254 253 252 251 251 243 236 217 202 195 172 164 222
186 192 189 190 182 173 168 165 164 166 167 166 165 160 162 164 170 177 184 191 194 206 222 255 242 218 232 250 255 254 260 256 250 249 253 246 245 233 219 215 177 209 223
185 191 192 193 189 182 175 175 173 171 170 169 168 173 172 169 169 175 179 182 185 183 194 209 266 275 232 231 252 259 256 258 257 254 251 241 235 232 227 214 206 204 212
189 193 195 192 192 190 184 182 182 178 180 179 181 184 184 182 183 183 180 181 184 182 179 179 193 245 268 255 251 251 257 258 257 254 259 248 240 240 229 224 218 217 206
188 197 200 198 195 195 192 192 191 190 191 193 195 194 193 192 193 191 187 187 185 187 180 183 189 194 257 274 266 265 262 258 253 240 246 248 231 253 230 227 227 248 231
191 197 200 204 203 202 202 202 205 201 203 205 206 204 203 201 202 198 194 193 190 188 185 193 205 215 221 240 256 264 254 251 257 266 255 258 238 237 234 224 229 243 247
184 188 201 209 213 215 214 211 215 216 215 216 217 216 214 213 213 211 207 205 201 195 194 205 221 228 227 238 253 255 251 250 236 258 259 255 244 250 237 230 222 231 237
187 192 203 212 221 225 226 223 224 227 230 228 227 225 223 220 221 220 218 216 214 210 214 225 236 250 255 261 267 268 264 259 260 261 255 256 249 248 238 228 223 223 232
197 202 210 215 223 229 235 235 234 235 239 240 235 233 229 227 226 226 225 224 226 228 233 239 242 249 259 267 277 280 274 268 252 254 251 261 261 253 240 227 218 222 231
205 209 217 225 230 233 237 242 242 243 242 245 243 240 237 234 233 230 229 230 233 236 243 249 254 251 251 263 276 286 288 277 267 254 262 244 247 246 243 229 217 212 211
212 220 224 229 236 241 243 246 246 248 245 245 246 243 240 236 235 232 232 235 237 239 243 249 249 247 246 257 274 287 294 276 253 268 253 251 258 245 242 232 221 211 211
221 226 235 236 242 246 248 250 252 250 250 247 244 243 238 237 232 232 236 236 237 240 241 245 249 249 249 244 286 286 279 254 266 262 254 256 259 247 240 234 221 214 211
232 236 242 247 252 262 264 263 260 258 256 251 246 244 244 236 228 230 226 236 233 235 239 244 246 246 239 241 247 248 248 261 266 268 255 268 260 254 242 235 224 220 213
245 246 243 256 263 281 282 277 272 268 259 250 247 247 238 238 228 222 223 227 231 227 235 228 235 233 235 243 243 243 251 255 263 264 266 277 264 266 250 236 229 222 220
256 270 261 232 260 285 291 282 276 273 264 249 245 245 241 232 229 226 225 224 228 226 232 228 231 236 240 247 249 251 249 257 257 260 260 273 265 263 260 246 230 222 221
260 263 229 254 275 288 285 283 277 272 263 257 238 241 251 238 230 226 228 229 228 229 231 232 235 237 246 243 248 244 240 251 259 254 260 267 273 261 263 259 233 222 219
256 254 243 265 291 282 287 278 280 266 264 253 247 243 239 245 233 231 229 231 231 231 226 228 229 235 237 251 244 245 240 244 253 257 252 251 266 274 259 254 239 223 219
245 253 257 271 284 285 288 277 268 262 259 259 244 234 237 242 236 234 227 229 227 225 229 227 233 238 249 251 252 250 241 239 247 246 247 246 250 246 262 256 238 222 219
260 254 268 286 286 283 287 283 265 259 261 252 240 225 235 242 240 225 227 225 225 220 223 226 230 240 245 248 254 256 245 243 246 251 256 250 250 241 235 249 249 231 222
263 275 279 282 275 274 282 285 266 258 256 240 231 220 233 241 237 229 219 215 221 212 216 223 235 236 239 248 254 247 235 247 250 264 266 262 253 236 216 230 242 244 234
278 287 280 273 269 265 276 277 267 253 242 226 217 222 232 233 228 221 208 213 210 212 231 234 227 224 235 242 249 264 264 264 263 260 261 256 236 223 214 220 224 233 215
280 271 269 273 266 269 272 270 256 240 221 211 210 225 230 224 218 211 195 196 181 196 200 213 211 218 231 244 250 262 267 259 249 250 243 235 218 209 210 219 218 225 182
264 268 270 273 273 271 268 260 253 227 222 201 205 219 218 210 202 191 188 183 187 183 208 211 216 219 236 246 249 241 247 252 212 226 235 233 229 225 207 214 211 212 192
269 266 265 269 265 271 260 247 239 211 198 201 192 190 197 190 185 185 184 188 194 184 207 212 220 227 242 243 245 244 243 259 249 209 222 222 220 213 214 209 207 203 199
262 260 256 257 262 255 253 236 229 195 198 181 170 181 173 176 180 180 181 192 198 195 215 226 224 250 248 234 236 237 228 235 233 210 189 193 210 204 219 205 201 196 193
253 246 240 241 244 241 239 223 199 187 179 169 167 160 161 166 172 179 187 190 195 205 224 226 238 252 237 230 226 226 217 221 225 218 207 184 189 191 201 192 191 189 198
Wind_Speed_850mb
44 39 35 33 34 34 33 31 29 28 27 25 24 23 20 17 14 14 13 11 9 8 9 10 9 9 10 12 14 17 19 19 21 22 19 12 10 11 10 13 15 11 17
43 44 39 36 35 37 35 33 33 32 30 27 25 25 23 21 18 15 14 13 10 7 5 4 5 7 8 9 11 13 16 18 20 23 24 18 17 16 16 15 17 16 18
42 44 44 39 35 36 36 36 35 32 30 28 26 25 25 23 21 19 17 15 13 10 7 3 2 4 5 7 9 11 13 16 18 18 19 10 12 20 20 20 22 23 24
40 41 44 40 37 35 37 36 36 33 31 30 29 28 26 25 22 21 18 15 13 12 10 7 4 3 3 4 6 7 10 13 15 12 5 10 12 23 22 25 25 27 29
41 40 41 40 38 35 34 32 33 34 33 32 32 32 30 28 26 24 20 17 14 12 10 8 5 3 3 5 5 6 6 9 9 6 9 9 9 21 26 25 20 24 21
41 40 36 40 36 34 34 33 33 34 32 33 34 34 33 30 29 26 22 18 14 10 7 7 6 6 7 6 6 8 8 7 5 7 11 14 11 25 26 26 26 23 18
40 37 34 40 37 36 34 35 34 34 33 35 36 36 35 32 29 27 24 19 15 12 10 7 7 8 6 7 7 9 11 12 5 14 13 12 14 20 22 27 24 22 19
37 38 36 40 39 40 38 38 36 37 36 37 39 40 38 36 34 32 28 22 17 13 10 8 7 7 7 7 9 11 13 15 13 15 17 15 24 21 20 26 27 24 22
40 39 39 38 44 45 45 42 39 41 41 42 44 45 43 42 40 36 32 28 23 17 14 12 9 9 9 9 10 13 15 17 15 17 19 19 32 23 21 20 28 26 22
40 41 42 42 44 47 48 46 45 47 48 49 50 49 48 47 45 42 38 34 28 24 20 16 14 12 12 13 13 14 15 16 16 19 21 23 40 27 22 21 24 28 23
35 44 44 41 45 48 52 52 51 54 56 57 58 56 52 54 55 52 48 41 37 33 27 23 21 18 18 16 17 16 16 9 18 18 19 35 34 31 28 25 24 28 27
35 35 42 41 42 48 50 52 56 60 64 68 68 67 63 64 57 55 54 50 45 41 34 30 28 25 24 15 20 22 11 16 16 18 17 37 28 30 30 28 28 28 29
28 32 35 44 41 41 46 51 56 58 64 68 70 72 68 62 53 53 47 58 56 50 42 39 37 32 23 21 21 20 18 18 16 16 19 27 20 22 27 30 30 30 32
25 28 31 41 37 33 39 47 52 57 60 61 59 68 68 65 58 52 49 44 49 43 45 36 31 30 28 28 26 24 21 19 18 18 20 27 21 18 22 29 30 33 31
31 25 26 25 27 33 37 40 46 53 58 56 55 58 63 59 62 53 51 48 46 41 41 38 36 34 30 30 30 30 25 24 23 21 19 32 24 20 18 23 31 34 33
35 32 17 23 32 41 47 52 54 57 59 58 48 51 63 59 58 51 51 52 49 45 43 39 37 34 32 35 33 32 30 26 25 26 23 27 28 27 23 19 27 36 35
33 38 36 31 42 42 47 55 59 62 65 54 49 53 58 59 54 54 47 49 47 47 46 41 39 35 33 35 37 33 31 27 27 28 27 26 26 27 28 22 22 33 38
25 31 35 38 46 50 49 47 52 58 57 55 46 45 53 54 48 48 43 44 45 47 44 42 38 36 36 41 37 33 31 28 31 32 30 26 30 27 27 26 24 29 35
37 40 46 53 56 52 44 42 50 51 54 47 43 41 47 44 40 39 37 38 44 42 42 40 38 36 38 35 33 30 28 30 32 32 33 34 35 33 28 30 28 26 33
46 60 66 68 59 53 47 42 45 47 48 42 40 40 41 36 31 34 34 35 39 36 36 38 37 35 38 26 23 27 34 36 39 37 37 41 33 33 34 28 20 24 27
55 60 57 53 54 48 45 38 36 40 39 34 36 40 33 30 31 34 30 32 29 28 33 35 33 31 24 25 20 27 33 42 51 50 48 37 32 27 28 27 24 26 17
53 54 49 45 43 43 43 37 32 29 29 29 30 31 29 30 32 29 32 28 24 25 32 34 31 25 23 26 24 28 18 24 31 38 35 28 32 31 28 28 24 27 21
48 51 50 49 48 47 44 39 35 33 31 29 30 27 30 29 28 31 32 31 30 25 28 30 30 29 24 27 33 24 12 13 8 22 28 30 31 34 32 24 26 26 30
60 53 52 62 59 55 46 39 37 30 28 25 26 25 26 28 30 33 33 33 27 24 26 25 27 26 27 25 22 30 26 16 9 9 15 22 25 24 26 26 24 26 25
58 49 47 60 56 48 44 37 39 33 27 25 29 29 29 32 32 32 31 32 31 25 24 27 26 28 26 24 22 19 23 20 18 9 12 15 20 18 22 25 25 26 24
44 42 40 43 44 42 40 39 35 33 31 33 32 33 30 29 30 29 29 28 26 24 24 24 24 24 24 21 18 25 20 20 18 12 9 17 21 23 20 22 24 25 25
Wind_Direction_850mb
186 193 189 184 174 166 162 158 156 156 160 166 164 162 163 166 174 184 191 201 210 224 232 228 225 236 246 251 251 254 254 253 252 251 251 243 236 217 202 195 172 164 222
186 192 189 190 182 173 168 165 164 166 167 166 165 160 162 164 170 177 184 191 194 206 222 255 242 218 232 250 255 254 260 256 250 249 253 246 245 233 219 215 177 209 223
185 191 192 193 189 182 175 175 173 171 170 169 168 173 172 169 169 175 179 182 185 183 194 209 266 275 232 231 252 259 256 258 257 254 251 241 235 232 227 214 206 204 212
189 193 195 192 192 190 184 182 182 178 180 179 181 184 184 182 183 183 180 181 184 182 179 179 193 245 268 255 251 251 257 258 257 254 259 248 240 240 229 224 218 217 206
188 197 200 198 195 195 192 192 191 190 191 193 195 194 193 192 193 191 187 187 185 187 180 183 189 194 257 274 266 265 262 258 253 240 246 248 231 253 230 227 227 248 231
191 197 200 204 203 202 202 202 205 201 203 205 206 204 203 201 202 198 194 193 190 188 185 193 205 215 221 240 256 264 254 251 257 266 255 258 238 237 234 224 229 243 247
184 188 201 209 213 215 214 211 215 216 215 216 217 216 214 213 213 211 207 205 201 195 194 205 221 228 227 238 253 255 251 250 236 258 259 255 244 250 237 230 222 231 237
187 192 203 212 221 225 226 223 224 227 230 228 227 225 223 220 221 220 218 216 214 210 214 225 236 250 255 261 267 268 264 259 260 261 255 256 249 248 238 228 223 223 232
197 202 210 215 223 229 235 235 234 235 239 240 235 233 229 227 226 226 225 224 226 228 233 239 242 249 259 267 277 280 274 268 252 254 251 261 261 253 240 227 218 222 231
205 209 217 225 230 233 237 242 242 243 242 245 243 240 237 234 233 230 229 230 233 236 243 249 254 251 251 263 276 286 288 277 267 254 262 244 247 246 243 229 217 212 211
212 220 224 229 236 241 243 246 246 248 245 245 246 243 240 236 235 232 232 235 237 239 243 249 249 247 246 257 274 287 294 276 253 268 253 251 258 245 242 232 221 211 211
221 226 235 236 242 246 248 250 252 250 250 247 244 243 238 237 232 232 236 236 237 240 241 245 249 249 249 244 286 286 279 254 266 262 254 256 259 247 240 234 221 214 211
232 236 242 247 252 262 264 263 260 258 256 251 246 244 244 236 228 230 226 236 233 235 239 244 246 246 239 241 247 248 248 261 266 268 255 268 260 254 242 235 224 220 213
245 246 243 256 263 281 282 277 272 268 259 250 247 247 238 238 228 222 223 227 231 227 235 228 235 233 235 243 243 243 251 255 263 264 266 277 264 266 250 236 229 222 220
256 270 261 232 260 285 291 282 276 273 264 249 245 245 241 232 229 226 225 224 228 226 232 228 231 236 240 247 249 251 249 257 257 260 260 273 265 263 260 246 230 222 221
260 263 229 254 275 288 285 283 277 272 263 257 238 241 251 238 230 226 228 229 228 229 231 232 235 237 246 243 248 244 240 251 259 254 260 267 273 261 263 259 233 222 219
256 254 243 265 291 282 287 278 280 266 264 253 247 243 239 245 233 231 229 231 231 231 226 228 229 235 237 251 244 245 240 244 253 257 252 251 266 274 259 254 239 223 219
245 253 257 271 284 285 288 277 268 262 259 259 244 234 237 242 236 234 227 229 227 225 229 227 233 238 249 251 252 250 241 239 247 246 247 246 250 246 262 256 238 222 219
260 254 268 286 286 283 287 283 265 259 261 252 240 225 235 242 240 225 227 225 225 220 223 226 230 240 245 248 254 256 245 243 246 251 256 250 250 241 235 249 249 231 222
263 275 279 282 275 274 282 285 266 258 256 240 231 220 233 241 237 229 219 215 221 212 216 223 235 236 239 248 254 247 235 247 250 264 266 262 253 236 216 230 242 244 234
278 287 280 273 269 265 276 277 267 253 242 226 217 222 232 233 228 221 208 213 210 212 231 234 227 224 235 242 249 264 264 264 263 260 261 256 236 223 214 220 224 233 215
280 271 269 273 266 269 272 270 256 240 221 211 210 225 230 224 218 211 195 196 181 196 200 213 211 218 231 244 250 262 267 259 249 250 243 235 218 209 210 219 218 225 182
264 268 270 273 273 271 268 260 253 227 222 201 205 219 218 210 202 191 188 183 187 183 208 211 216 219 236 246 249 241 247 252 212 226 235 233 229 225 207 214 211 212 192
269 266 265 269 265 271 260 247 239 211 198 201 192 190 197 190 185 185 184 188 194 184 207 212 220 227 242 243 245 244 243 259 249 209 222 222 220 213 214 209 207 203 199
262 260 256 257 262 255 253 236 229 195 198 181 170 181 173 176 180 180 181 192 198 195 215 226 224 250 248 234 236 237 228 235 233 210 189 193 210 204 219 205 201 196 193
253 246 240 241 244 241 239 223 199 187 179 169 167 160 161 166 172 179 187 190 195 205 224 226 238 252 237 230 226 226 217 221 225 218 207 184 189 191 201 192 191 189 198